Flag for U.S.A. Weather past 2 weeks in Bentonville, Arkansas, U.S.A.

48 °F


Feels Like: 48 °F
Forecast: 46 / 68 °F
Wind: No wind

Location: Bentonville Weather Observing Station

Current Time: Oct 4, 2015 at 5:24:48 AM

Latest Report: Oct 4, 2015 at 4:55 AM

Visibility: 10 mi

Pressure: 30.04 "Hg

Humidity: 82%

Dew point: 43 °F

Location of BentonvilleLocation

Historic Weather in Bentonville — Graph


Bentonville temperature yesterday

Maximum temperature yesterday: 68 °F (at 3:15 PM)
Minimum temperature yesterday: 46 °F (at 5:15 AM)
Average temperature yesterday: 57 °F

Past Weeks' High & Low Weather Summary

High86 °F (Sep 22, 4:35 PM)88% (Sep 20, 3:15 AM)30.21 "Hg (Sep 20, 3:15 AM)
Low45 °F (Oct 2, 7:15 AM)23% (Oct 1, 3:55 PM)29.93 "Hg (Sep 28, 3:55 PM)
Average67 °F65%30.09 "Hg
* Reported Sep 19 4:15 AM — Oct 4 4:15 AM, Bentonville, Weather by CustomWeather, © 2015

Note: Actual official high and low records may vary slightly from our data, if they occured in-between our weather recording intervals... More about our weather records


Bentonville weather history for previous 24 hours

Time TempWeatherWind HumidityBarometerVisibility
4:15 AM
Sun, Oct 4
52 °FPassing clouds.No wind72%30.03 "Hg10 mi
3:55 AM52 °FOvercast.5 mph72%30.02 "Hg10 mi
3:35 AM52 °FOvercast.5 mph72%30.02 "Hg10 mi
3:15 AM52 °FOvercast.5 mph72%30.02 "Hg10 mi
2:55 AM54 °FOvercast.8 mph67%30.02 "Hg10 mi
2:35 AM52 °FOvercast.7 mph72%30.03 "Hg10 mi
2:15 AM52 °FOvercast.7 mph72%30.03 "Hg10 mi
1:55 AM54 °FOvercast.8 mph67%30.03 "Hg10 mi
1:35 AM54 °FPassing clouds.7 mph67%30.04 "Hg10 mi
1:15 AM54 °FClear.7 mph72%30.03 "Hg10 mi
12:55 AM52 °FClear.6 mph77%30.04 "Hg10 mi
12:35 AM54 °FClear.6 mph72%30.04 "Hg10 mi
12:15 AM54 °FClear.9 mph72%30.03 "Hg10 mi
11:55 PM
Sat, Oct 3
54 °FClear.7 mph72%30.03 "Hg10 mi
10:35 PM54 °FClear.7 mph72%30.03 "Hg10 mi
10:15 PM55 °FClear.6 mph67%30.02 "Hg10 mi
9:55 PM55 °FClear.6 mph67%30.02 "Hg10 mi
9:35 PM55 °FPassing clouds.7 mph67%30.01 "Hg10 mi
9:15 PM55 °FClear.7 mph67%30.01 "Hg10 mi
8:55 PM57 °FClear.7 mph63%30.00 "Hg10 mi
8:35 PM57 °FClear.8 mph63%30.00 "Hg10 mi
8:15 PM57 °FClear.6 mph67%30.00 "Hg10 mi
7:55 PM57 °FSunny.7 mph67%29.99 "Hg10 mi
7:35 PM59 °FSunny.6 mph59%29.99 "Hg10 mi
7:15 PM61 °FSunny.7 mph55%29.98 "Hg10 mi
6:55 PM63 °FSunny.8 mph52%29.98 "Hg10 mi
6:35 PM64 °FSunny.10 mph49%29.98 "Hg10 mi
6:15 PM64 °FSunny.9 mph49%29.98 "Hg10 mi
5:55 PM66 °FSunny.13 mph49%29.97 "Hg10 mi
4:15 PM68 °FSunny.12 mph46%29.96 "Hg10 mi
3:55 PM68 °FSunny.13 mph46%29.96 "Hg10 mi
3:35 PM68 °FSunny.9 mph46%29.96 "Hg9 mi
3:15 PM68 °FSunny.10 mph46%29.96 "Hg10 mi
2:55 PM66 °FSunny.14 mph46%29.97 "Hg10 mi
2:35 PM66 °FSunny.10 mph46%29.97 "Hg10 mi
2:15 PM66 °FSunny.12 mph46%29.98 "Hg10 mi
1:55 PM64 °FSunny.9 mph49%29.99 "Hg10 mi
1:35 PM66 °FSunny.9 mph46%30.00 "Hg10 mi
1:15 PM64 °FSunny.9 mph46%30.00 "Hg10 mi
12:55 PM64 °FSunny.9 mph46%30.01 "Hg10 mi
12:35 PM64 °FSunny.7 mph46%30.02 "Hg10 mi
12:15 PM63 °FSunny.9 mph49%30.02 "Hg10 mi
11:55 AM63 °FSunny.10 mph49%30.02 "Hg10 mi
11:35 AM61 °FSunny.10 mph48%30.03 "Hg10 mi
11:15 AM59 °FSunny.7 mph55%30.04 "Hg10 mi
10:55 AM57 °FSunny.6 mph59%30.04 "Hg10 mi
10:35 AM57 °FSunny.7 mph63%30.04 "Hg10 mi
10:15 AM55 °FSunny.7 mph63%30.05 "Hg10 mi
9:55 AM54 °FSunny.6 mph67%30.05 "Hg10 mi
9:35 AM52 °FSunny.6 mph67%30.06 "Hg10 mi
9:15 AM52 °FSunny.6 mph67%30.05 "Hg10 mi
8:55 AM50 °FSunny.7 mph71%30.04 "Hg10 mi
8:35 AM48 °FSunny.9 mph76%30.03 "Hg10 mi
8:15 AM48 °FSunny.8 mph76%30.03 "Hg10 mi
7:55 AM46 °FClear.6 mph82%30.03 "Hg10 mi
7:35 AM46 °FClear.6 mph76%30.03 "Hg10 mi
7:15 AM46 °FClear.6 mph76%30.03 "Hg10 mi
6:55 AM46 °FClear.7 mph76%30.03 "Hg10 mi
6:35 AM46 °FClear.7 mph76%30.03 "Hg10 mi
6:15 AM46 °FClear.6 mph82%30.04 "Hg10 mi
5:55 AM46 °FClear.6 mph82%30.03 "Hg10 mi
5:35 AM46 °FClear.7 mph87%30.03 "Hg10 mi
5:15 AM46 °FClear.7 mph82%30.03 "Hg10 mi
Weather by CustomWeather, © 2015

See weather overviewHow to use our weather pages